Regional Weather Roundup
Issued by NWS

Home | Current Version | Previous Version | Text Only | Print | Product List | Glossary Off
Versions: 1 2 3 4 5 6 7 8 9 10 11 12 13 14 15 16 17 18 19 20 21 22 23 24 25 26 27 28 29 30 31 32 33 34 35 36 37 38 39 40 41 42 43 44 45 46 47 48 49 50

000
ASUS43 KIND 221459
RWRIN

WEATHER ROUNDUP FOR INDIANA
NATIONAL WEATHER SERVICE INDIANAPOLIS IN
1100 AM EDT TUE JUL 22 2014

NOTE: "FAIR" INDICATES FEW OR NO CLOUDS BELOW 12,000 FEET WITH NO
SIGNIFICANT WEATHER AND/OR OBSTRUCTIONS TO VISIBILITY.

* - STATION DOES NOT REPORT WEATHER SUCH AS PRECIPITATION OR FOG.

+ - STATION NOT QUALITY CONTROLLED BY THE NATIONAL WEATHER SERVICE.
    USE DATA WITH CAUTION...ESPECIALLY DEWPOINT AND RELATIVE
    HUMIDITY OBSERVATIONS.

INZ001>003-010>013-019-020-221600-
NORTHWEST INDIANA

CITY           SKY/WX    TMP DP  RH WIND       PRES   REMARKS
KNOX *+        SUNNY     79  65  63 S12       30.05F
MONTICELLO +   SUNNY     78  69  74 SW8       30.07F
RENSSELAER +   SUNNY     79  72  78 S10       30.06F
VALPARAISO     SUNNY     79  66  64 S14       30.05F

$$

LMZ046-743>745-221600-
SOUTHERN LAKE MICHIGAN

STATION/POSITION TIME  TEMP WIND        PRES
                       AIR  DIR/SP/G
                 (UTC) (F)  (DEG/KT/KT) (MB)
BURNS HARBOR     1400   75  190/ 14/ 22 1017.9
MICHIGAN CITY    1400   75  170/ 11/ 14   N/A

$$

INZ004-005-014>016-021>024-221600-
NORTH CENTRAL INDIANA

CITY           SKY/WX    TMP DP  RH WIND       PRES   REMARKS
ELKHART        SUNNY     81  64  57 SW10      30.06
GOSHEN         SUNNY     80  66  62 S13       30.07F
SOUTH BEND     SUNNY     80  65  59 S14       30.05F
WARSAW +       SUNNY     79  66  65 S7        30.08F

$$

INZ006>009-017-018-025>027-221600-
NORTHEAST INDIANA

CITY           SKY/WX    TMP DP  RH WIND       PRES   REMARKS
ANGOLA *+      SUNNY     82  66  57 SW13      30.08F
FORT WAYNE     SUNNY     82  64  54 SW10      30.10F

$$

INZ028-029-035-036-043>045-051>053-221600-
WEST CENTRAL INDIANA

CITY           SKY/WX    TMP DP  RH WIND       PRES   REMARKS
GREENCASTLE +  SUNNY     79  68  69 CALM      30.11F
LAFAYETTE      SUNNY     80  68  66 SW7       30.08F
TERRE HAUTE    SUNNY     81  68  64 S7        30.10F

$$

INZ030>032-037>040-046>048-054>057-064-065-221600-
CENTRAL INDIANA

CITY           SKY/WX    TMP DP  RH WIND       PRES   REMARKS
COLUMBUS       SUNNY     81  72  74 CALM      30.12S
INDIANAPOLIS   SUNNY     81  66  60 S6        30.10F
-EAGLE CREEK   SUNNY     81  64  56 VRB3      30.10F
KOKOMO *+      SUNNY     81  68  65 S9        30.09F
MT COMFORT *+  SUNNY     82  72  69 CALM      30.12S
SHELBYVILLE    SUNNY     83  69  62 SW6       30.11F
ZIONSVILLE +   SUNNY     82  65  56 SW6       30.11F

$$

INZ033-034-041-042-049-050-058-059-221600-
EAST CENTRAL INDIANA

CITY           SKY/WX    TMP DP  RH WIND       PRES   REMARKS
MUNCIE         SUNNY     82  67  60 SW5       30.12F

$$

INZ060-061-067>069-081>083-085>088-221600-
SOUTHWEST INDIANA

CITY           SKY/WX    TMP DP  RH WIND       PRES   REMARKS
EVANSVILLE     SUNNY     85  68  56 N3        30.09F
HUNTINGBURG *+ SUNNY     82  70  65 S3        30.10F

$$

INZ062-063-066-070>080-084-089>092-221600-
SOUTH CENTRAL AND SOUTHEAST INDIANA

CITY           SKY/WX    TMP DP  RH WIND       PRES   REMARKS
BLOOMINGTON    SUNNY     82  67  60 SW6       30.11F

$$




USA.gov is the U.S. government's official web portal to all federal, state and local government web resources and services.